Miscellaneous Local Product
Issued by NWS Hastings, NE

Home | Current Version | Previous Version | Text Only | Print | Product List | Glossary On
Versions: 1 2 3 4 5 6 7 8 9 10 11 12 13 14 15 16 17 18 19 20 21 22 23 24 25 26 27 28 29 30 31 32 33 34 35 36 37 38 39 40 41 42 43 44 45 46 47 48 49 50
304
AXUS43 KGID 191902
MISGRI

GID CWA HOURLY WEATHER ROUNDUP
NATIONAL WEATHER SERVICE HASTINGS NE
200 PM CDT SAT AUG 19 2017

NOTE: "FAIR" INDICATES FEW OR NO CLOUDS BELOW 12,000 FEET WITH NO
SIGNIFICANT WEATHER AND/OR OBSTRUCTIONS TO VISIBILITY.

...SOUTH CENTRAL NEBRASKA...

CITY           SKY/WX    TMP DP  RH WIND       PRES   REMARKS
GRAND ISLAND   SUNNY     84  69  60 SE15      29.93F
HASTINGS       SUNNY     87  66  49 S13G23    29.95F
KEARNEY        SUNNY     86  71  60 S15G22    29.93F HX  91
ORD            SUNNY     85  65  51 S14G21    29.89F
YORK           SUNNY     82  68  61 SE10      29.95F
AURORA         SUNNY     83  70  64 SE13      29.94F
LEXINGTON      SUNNY     87  70  58 S17       29.92F HX  91
HOLDREGE       SUNNY     85  67  54 S13       29.93F
HEBRON         SUNNY     89  66  46 SE9       29.94F HX  91

...NEBRASKA PANHANDLE...

CITY           SKY/WX    TMP DP  RH WIND       PRES   REMARKS
CHADRON        SUNNY     92  43  18 N5        29.88F
ALLIANCE       SUNNY     89  48  24 W12       29.93F
SCOTTSBLUFF    SUNNY     91  42  18 NW15      29.94F
SIDNEY         MOSUNNY   96  47  18 SW14      29.98F HX  92

...WESTERN AND NORTH CENTRAL NEBRASKA...

CITY           SKY/WX    TMP DP  RH WIND       PRES   REMARKS
VALENTINE      SUNNY     92  61  35 S18G26    29.83F HX  92
AINSWORTH      SUNNY     87  63  44 S17G26    29.87F
ONEILL         SUNNY     82  65  55 S16G23    29.90F
BROKEN BOW     SUNNY     89  66  46 S16G28    29.90F HX  91
IMPERIAL       SUNNY     91  62  37 S17G23    29.93F HX  91
NORTH PLATTE   SUNNY     89  68  49 S14G25    29.89F HX  93
MCCOOK         SUNNY     93  64  38 S20G25    29.91F HX  94

...EASTERN NEBRASKA...

CITY           SKY/WX    TMP DP  RH WIND       PRES   REMARKS
NORFOLK        SUNNY     81  63  54 SE14      29.92F
SO SIOUX CITY  SUNNY     80  65  59 SE6       29.93F
TEKAMAH        SUNNY     81  63  54 VRB5      29.94F
COLUMBUS       SUNNY     81  68  64 SE8       29.94F
ALBION         CLOUDY    80  69  68 SE12      29.93F
OMAHA EPPLEY   SUNNY     86  55  34 CALM      29.94F
OFFUTT AFB     SUNNY     85  61  44 SE7       29.94F
MILLARD        SUNNY     85  60  42 SE5       29.95F
LINCOLN        SUNNY     85  63  47 SE9       29.95F
NEBRASKA CITY  SUNNY     84  62  48 SE6       29.97F
BEATRICE       SUNNY     89  65  44 E8        29.95F HX  90
FALLS CITY     SUNNY     85  64  49 SE8       29.95F

...NORTHERN KANSAS...

CITY           SKY/WX    TMP DP  RH WIND       PRES   REMARKS
GOODLAND       MOSUNNY   86  65  49 S15       29.97F
HILL CITY      SUNNY     97  61  30 S16G24    29.93F HX  97
NORTON         CLEAR     95  54  24 S13G22    29.92  HX  93
PHILLIPSBURG   SUNNY     93  63  36 SE10G17   29.92F HX  94
SMITH CENTER   PTSUNNY   88  66  48 SE12      29.93F HX  90
HAYS           SUNNY     95  67  39 SE14      29.93F HX  99
RUSSELL        SUNNY     94  64  37 S8        29.92F HX  95
CONCORDIA      SUNNY     90  70  51 SE7       29.93F HX  95
SALINA         SUNNY     96  68  39 SE9       29.92F HX 101
TOPEKA         SUNNY     91  71  51 E6        29.95F HX  97



USA.gov is the U.S. government's official web portal to all federal, state and local government web resources and services.